sat.trackr.live / text

‹ back to catalog

FOX-1A (AO-85)

NORAD 40967 · 2015-058D

PAYLOAD ACTIVE UNKNOWN

§ Identity

Operator
Country
US
Launch date
2015-10-08
Launch site
AFWTR
Launch vehicle
Mass (kg)
RCS (m²)

Purposes: comms, tech_demo

External: N2YO · Heavens-Above · Gunter

§ Orbital elements

Epoch: 2026-09-20T04:21:04.694112Z

Period
96.55 min
Inclination
64.7756°
Eccentricity
0.0138828
Mean motion
14.91402790 rev/d
Perigee alt
496.8 km
Apogee alt
690.3 km
Semi-major
6,971.7 km
B*
1.0450e-4
RAAN
343.6540°
Arg perigee
21.1010°
Mean anomaly
339.5751°
Rev number
12,773

§ Raw data

FOX-1A (AO-85)1 40967U 15058D   26263.18130433  .00001073  00000+0  10450-3 0  99902 40967  64.7756 343.6540 0138828  21.1010 339.5751 14.91402790127733

JSON: /api/v1/satellites/40967 · /tle

For live sub-satellite position, see the globe view (requires WebGL).

§ Visibility from observer

Set your observer location to see the next 7 days of passes ≥ 10°. The values pass through the URL so the page stays shareable.

No JS? Fill the form by hand. The geolocation button needs JavaScript.

§ Radio — SatNOGS DB

ModeDescriptionDownlinkUplink
DUV DUV TLM (inactive) 145.979 MHz
FM FM Transponder (inactive) 145.980 MHz 435.180 MHz
FM FM Transponder (current) (inactive) 145.979 MHz 435.172 MHz

3 transmitters · refreshed weekly from db.satnogs.org